Spokane Fairchild, WA
on Thursday, December 13, 2012

Thursday
Previous Day Next Day
Daily Summary
 ActualAverage (KGEG)Record (KGEG)
Temperature
Mean Temperature °F 27°F  
Max Temperature 32°F 32°F 57°F (1886)
Min Temperature 17°F 22°F -14°F (1919)
Degree Days
Heating Degree Days 40 38  
Month to date heating degree days 477  
Since 1 July heating degree days 2144  
Cooling Degree Days 0 0  
Month to date cooling degree days 0  
Year to date cooling degree days 450  
Moisture
Dew Point 26°F   
Average Humidity 100    
Maximum Humidity 100    
Minimum Humidity 100    
Precipitation
Precipitation 0.00 in 0.07 in 0.77 in (1977)
Month to date precipitation 1.04  
Year to date precipitation 15.30  
Snow
Snow 0.00 in 0.40 in 3.70 in (1996)
Month to date snowfall 5.5  
Since 1 July snowfall 13.0  
Snow Depth 2.00 in   
Wind
Wind Speed 3 mph   
Max Wind Speed 8 mph   
Max Gust Speed mph   
Visibility 5 miles   
Events Fog , Rain , Snow   

Key: T is trace of precipitation, MM is missing value
Source: NWS Daily Summary
Time(PST)TemperatureDew PointHumidity Pressure Visibility Wind DirectionWind SpeedGust SpeedPrecipitationEvents Conditions
12:18 AM 30.2°F 30.2°F 100% 29.93 in 10.0 miles West 2.3 mph - N/A   Overcast
12:28 AM 30.2°F 30.2°F 100% 29.93 in 10.0 miles West 3.5 mph - N/A   Overcast
12:43 AM 28.4°F 28.4°F 100% 29.93 in 10.0 miles South 2.3 mph - N/A   Overcast
12:58 AM 28.9°F 28.9°F 100% 30.01 in 10.0 miles Calm Calm - N/A   Overcast
1:18 AM 28.4°F 28.4°F 100% 29.93 in 9.0 miles Calm Calm - N/A   Overcast
1:28 AM 28.4°F 28.4°F 100% 29.93 in 1.0 miles Calm Calm - N/A   Overcast
1:33 AM 28.4°F 28.4°F 100% 29.93 in 0.5 miles SE 1.2 mph - N/A Fog Light Freezing Fog
1:38 AM 26.6°F 26.6°F 100% 29.93 in 0.2 miles SE 1.2 mph - N/A Fog Light Freezing Fog
1:47 AM 26.6°F 26.6°F 100% 29.93 in 0.2 miles SSE 2.3 mph - N/A Fog Light Freezing Fog
1:52 AM 24.8°F 24.8°F 100% 29.93 in 0.5 miles SSE 1.2 mph - N/A Fog Light Freezing Fog
1:56 AM 24.8°F 24.8°F 100% 29.93 in 0.5 miles SSE 2.3 mph - N/A Fog Light Freezing Fog
1:58 AM 24.8°F 24.8°F 100% 30.01 in 0.5 miles SSE 2.3 mph - 0.00 in Fog Light Freezing Fog
2:03 AM 24.8°F 24.8°F 100% 29.93 in 0.2 miles South 2.3 mph - N/A Fog Light Freezing Fog
2:08 AM 24.8°F 24.8°F 100% 29.94 in 0.2 miles South 2.3 mph - N/A Fog Light Freezing Fog
2:23 AM 24.8°F 24.8°F 100% 29.94 in 0.5 miles WSW 3.5 mph - N/A Fog Light Freezing Fog
2:28 AM 24.8°F 24.8°F 100% 29.94 in 0.5 miles WSW 3.5 mph - N/A Fog Light Freezing Fog
2:33 AM 26.6°F 26.6°F 100% 29.93 in 0.8 miles WSW 3.5 mph - N/A   Clear
2:38 AM 24.8°F 24.8°F 100% 29.93 in 0.5 miles WSW 2.3 mph - N/A Fog Light Freezing Fog
2:41 AM 24.8°F 24.8°F 100% 29.93 in 0.5 miles WSW 2.3 mph - N/A Fog , Rain Light Freezing Rain
2:46 AM 24.8°F 24.8°F 100% 29.94 in 0.5 miles WSW 2.3 mph - N/A Fog , Rain Light Freezing Rain
2:51 AM 24.8°F 24.8°F 100% 29.94 in 0.5 miles West 4.6 mph - N/A Fog , Rain Light Freezing Rain
2:56 AM 24.8°F 24.8°F 100% 29.94 in 0.8 miles West 4.6 mph - N/A Rain Light Freezing Rain
2:58 AM 24.3°F 24.3°F 100% 30.03 in 0.8 miles West 4.6 mph - 0.00 in Rain Light Freezing Rain
3:03 AM 23.0°F 23.0°F 100% 29.94 in 1.0 miles West 4.6 mph - N/A Rain Light Freezing Rain
3:08 AM 23.0°F 23.0°F 100% 29.95 in 1.2 miles West 4.6 mph - N/A Rain Light Freezing Rain
3:13 AM 23.0°F 23.0°F 100% 29.95 in 2.5 miles West 6.9 mph - N/A Rain Light Freezing Rain
3:18 AM 24.8°F 24.8°F 100% 29.94 in 2.5 miles West 5.8 mph - N/A Rain Light Freezing Rain
3:23 AM 24.8°F 24.8°F 100% 29.94 in 1.8 miles WSW 5.8 mph - N/A Rain Light Freezing Rain
3:29 AM 24.8°F 24.8°F 100% 29.94 in 1.8 miles WSW 4.6 mph - N/A   Overcast
3:32 AM 24.8°F 24.8°F 100% 29.94 in 1.8 miles WSW 4.6 mph - N/A   Overcast
3:37 AM 26.6°F 26.6°F 100% 29.95 in 2.0 miles West 4.6 mph - N/A   Overcast
3:38 AM 26.6°F 26.6°F 100% 29.95 in 2.0 miles West 4.6 mph - N/A Rain Light Freezing Rain
3:43 AM 26.6°F 26.6°F 100% 29.95 in 1.5 miles West 5.8 mph - N/A Rain Light Freezing Rain
3:48 AM 26.6°F 26.6°F 100% 29.95 in 0.8 miles WSW 5.8 mph - N/A Rain Light Freezing Rain
3:58 AM 26.2°F 26.2°F 100% 30.03 in 0.8 miles West 4.6 mph - 0.00 in   Mist
3:59 AM 26.6°F 26.6°F 100% 29.95 in 0.8 miles West 5.8 mph - N/A Rain Light Freezing Rain
4:55 AM 26.6°F 26.6°F 100% 30.03 in 10.0 miles West 3.5 mph - N/A   Overcast
5:09 AM 26.6°F 26.6°F 100% 29.95 in 10.0 miles WSW 2.3 mph - N/A   Overcast
5:19 AM 26.6°F 26.6°F 100% 29.95 in 10.0 miles SW 1.2 mph - N/A   Overcast
5:23 AM 26.6°F 26.6°F 100% 29.96 in 10.0 miles WSW 1.2 mph - N/A   Overcast
5:33 AM 28.4°F 28.4°F 100% 29.96 in 10.0 miles SW 2.3 mph - N/A   Overcast
5:53 AM 28.4°F 28.4°F 100% 29.96 in 10.0 miles SW 8.1 mph - N/A   Overcast
5:58 AM 28.6°F 28.6°F 100% 30.04 in 10.0 miles SSW 5.8 mph - 0.00 in   Overcast
5:59 AM 28.4°F 28.4°F 100% 29.96 in 10.0 miles SSW 5.8 mph - N/A   Overcast
6:12 AM 28.4°F 28.4°F 100% 29.97 in 10.0 miles SSW 5.8 mph - N/A   Overcast
6:27 AM 28.4°F 28.4°F 100% 29.97 in 10.0 miles SSW 4.6 mph - N/A   Overcast
6:30 AM 28.4°F 28.4°F 100% 29.97 in 10.0 miles SSW 5.8 mph - N/A   Overcast
6:39 AM 28.4°F 28.4°F 100% 29.97 in 10.0 miles South 6.9 mph - N/A   Overcast
6:58 AM 28.9°F 28.9°F 100% 30.05 in 10.0 miles South 4.6 mph - 0.00 in   Overcast
7:27 AM 28.4°F 28.4°F 100% 29.97 in 9.0 miles SSW 5.8 mph - N/A   Overcast
7:40 AM 28.4°F 28.4°F 100% 29.97 in 9.0 miles SSW 6.9 mph - N/A   Overcast
7:55 AM 28.4°F 28.4°F 100% 29.98 in 6.0 miles SSW 5.8 mph - N/A   Overcast
8:02 AM 28.4°F 28.4°F 100% 29.98 in 7.0 miles South 8.1 mph - N/A   Overcast
8:14 AM 28.4°F 28.4°F 100% 29.97 in 5.0 miles SSW 4.6 mph - N/A   Overcast
8:39 AM 28.4°F 28.4°F 100% 29.97 in 10.0 miles SSW 4.6 mph - N/A   Overcast
8:42 AM 28.4°F 28.4°F 100% 29.97 in 10.0 miles SSW 5.8 mph - N/A   Overcast
8:55 AM 28.4°F 28.4°F 100% 29.97 in 10.0 miles SSW 6.9 mph - N/A   Overcast
9:20 AM 30.2°F 30.2°F 100% 29.97 in 10.0 miles South 5.8 mph - N/A   Overcast
9:33 AM 30.2°F 30.2°F 100% 29.97 in 10.0 miles SSE 3.5 mph - N/A   Overcast
9:58 AM 29.5°F 29.5°F 100% 30.05 in 9.0 miles South 4.6 mph - 0.00 in   Overcast
10:02 AM 28.4°F 28.4°F 100% 29.97 in 9.0 miles South 5.8 mph - N/A   Overcast
10:11 AM 30.2°F 30.2°F 100% 29.97 in 8.0 miles South 6.9 mph - N/A   Overcast
10:54 AM 30.2°F 30.2°F 100% 29.96 in 10.0 miles SSE 6.9 mph - N/A   Overcast
10:58 AM 29.8°F 29.8°F 100% 30.04 in 10.0 miles SSE 6.9 mph - 0.00 in   Overcast
11:12 AM 30.2°F 30.2°F 100% 29.96 in 10.0 miles SSE 6.9 mph - N/A   Overcast
11:34 AM 30.2°F 30.2°F 100% 29.95 in 10.0 miles SSW 4.6 mph - N/A   Overcast
11:44 AM 30.2°F 30.2°F 100% 29.95 in 10.0 miles South 5.8 mph - N/A   Overcast
11:58 AM 30.0°F 30.0°F 100% 30.03 in 10.0 miles SSW 4.6 mph - 0.00 in   Overcast
12:03 PM 30.2°F 30.2°F 100% 29.95 in 10.0 miles SW 3.5 mph - N/A   Overcast
12:23 PM 30.2°F 30.2°F 100% 29.94 in 10.0 miles SW 3.5 mph - N/A   Overcast
12:53 PM 30.2°F 30.2°F 100% 29.93 in 10.0 miles SSW 3.5 mph - N/A   Overcast
12:58 PM 30.2°F 30.2°F 100% 30.01 in 10.0 miles South 3.5 mph - N/A   Overcast
1:13 PM 30.2°F 30.2°F 100% 29.92 in 10.0 miles SSE 2.3 mph - N/A   Overcast
1:18 PM 32.0°F 32.0°F 100% 29.91 in 10.0 miles SSE 3.5 mph - N/A   Overcast
1:24 PM 32.0°F 32.0°F 100% 29.91 in 10.0 miles SSE 3.5 mph - N/A   Overcast
1:34 PM 32.0°F 32.0°F 100% 29.90 in 10.0 miles SSE 2.3 mph - N/A   Overcast
1:54 PM 32.0°F 32.0°F 100% 29.90 in 10.0 miles SSE 3.5 mph - N/A   Overcast
1:58 PM 30.9°F 30.9°F 100% 29.99 in 10.0 miles SSE 3.5 mph - 0.00 in   Overcast
2:03 PM 32.0°F 32.0°F 100% 29.90 in 10.0 miles South 4.6 mph - N/A   Overcast
2:23 PM 32.0°F 32.0°F 100% 29.89 in 10.0 miles South 3.5 mph - N/A   Overcast
2:28 PM 32.0°F 32.0°F 100% 29.89 in 10.0 miles South 3.5 mph - N/A   Overcast
2:38 PM 32.0°F 32.0°F 100% 29.89 in 10.0 miles South 4.6 mph - N/A   Overcast
2:58 PM 31.3°F 31.3°F 100% 29.98 in 10.0 miles South 3.5 mph - N/A   Overcast
3:43 PM 32.0°F 32.0°F 100% 29.88 in 10.0 miles South 2.3 mph - N/A   Overcast
3:58 PM 31.1°F 31.1°F 100% 29.96 in 10.0 miles South 2.3 mph - N/A   Overcast
4:02 PM 32.0°F 32.0°F 100% 29.88 in 10.0 miles South 3.5 mph - N/A   Overcast
4:58 PM 30.9°F 30.9°F 100% 29.95 in 10.0 miles Calm Calm - N/A   Overcast
5:01 PM 32.0°F 32.0°F 100% 29.86 in 10.0 miles Calm Calm - N/A   Overcast
5:18 PM 32.0°F 32.0°F 100% 29.86 in 10.0 miles Calm Calm - N/A   Overcast
5:25 PM 32.0°F 32.0°F 100% 29.85 in 10.0 miles East 3.5 mph - N/A   Overcast
5:45 PM 32.0°F 32.0°F 100% 29.85 in 10.0 miles ENE 1.2 mph - N/A   Overcast
5:50 PM 32.0°F 32.0°F 100% 29.85 in 10.0 miles ENE 2.3 mph - N/A   Overcast
5:58 PM 30.6°F 30.6°F 100% 29.93 in 10.0 miles ENE 2.3 mph - 0.00 in   Overcast
6:02 PM 32.0°F 32.0°F 100% 29.84 in 10.0 miles ENE 3.5 mph - N/A   Overcast
6:45 PM 28.4°F 28.4°F 100% 29.84 in 1.8 miles North 4.6 mph - N/A   Scattered Clouds
6:50 PM 26.6°F 26.6°F 100% 29.84 in 1.0 miles North 4.6 mph - N/A   Scattered Clouds
6:55 PM 26.6°F 26.6°F 100% 29.84 in 0.5 miles North 4.6 mph - N/A Fog Light Freezing Fog
6:58 PM 27.0°F 27.0°F 100% 29.92 in 0.5 miles North 4.6 mph - 0.00 in Fog Light Freezing Fog
7:03 PM 26.6°F 26.6°F 100% 29.84 in 0.2 miles North 4.6 mph - N/A Fog Light Freezing Fog
7:10 PM 28.4°F 28.4°F 100% 29.84 in 0.2 miles North 4.6 mph - N/A Fog Light Freezing Fog
7:15 PM 28.4°F 28.4°F 100% 29.83 in 0.2 miles North 4.6 mph - N/A Fog Light Freezing Fog
7:20 PM 28.4°F 28.4°F 100% 29.83 in 0.2 miles North 4.6 mph - N/A Fog Light Freezing Fog
7:40 PM 24.8°F 24.8°F 100% 29.83 in 0.2 miles NNE 3.5 mph - N/A Fog Light Freezing Fog
7:50 PM 23.0°F 23.0°F 100% 29.83 in 0.2 miles NE 4.6 mph - N/A Fog Light Freezing Fog
7:55 PM 23.0°F 23.0°F 100% 29.83 in 0.5 miles NNE 2.3 mph - N/A Fog Light Freezing Fog
7:58 PM 23.0°F 23.0°F 100% 29.83 in 0.2 miles NE 3.5 mph - 0.00 in Fog Light Freezing Fog
8:03 PM 23.0°F 23.0°F 100% 29.83 in 0.2 miles NE 2.3 mph - N/A Fog Light Freezing Fog
8:08 PM 23.0°F 23.0°F 100% 29.83 in 0.2 miles NE 2.3 mph - N/A Fog Light Freezing Fog
8:13 PM 23.0°F 23.0°F 100% 29.83 in 0.2 miles NE 2.3 mph - N/A Fog Light Freezing Fog
8:18 PM 23.0°F 23.0°F 100% 29.83 in 0.2 miles Calm Calm - N/A Fog Light Freezing Fog
8:23 PM 21.2°F 21.2°F 100% 29.83 in 0.2 miles Calm Calm - N/A Fog Light Freezing Fog
8:38 PM 21.2°F 21.2°F 100% 29.83 in 0.2 miles Calm Calm - N/A Fog Light Freezing Fog
8:43 PM 21.2°F 21.2°F 100% 29.83 in 0.5 miles Calm Calm - N/A Fog Light Freezing Fog
8:48 PM 21.2°F 21.2°F 100% 29.82 in 0.5 miles Calm Calm - N/A Fog Light Freezing Fog
8:58 PM 20.3°F 20.3°F 100% 29.82 in 0.5 miles Calm Calm - N/A Fog Light Freezing Fog
9:03 PM 19.4°F 19.4°F 100% 29.82 in 0.5 miles NE 1.2 mph - N/A Fog , Snow Light Freezing Fog
9:08 PM 19.4°F 19.4°F 100% 29.82 in 0.2 miles NE 1.2 mph - N/A Fog , Snow Light Freezing Fog
9:13 PM 19.4°F 19.4°F 100% 29.82 in 0.2 miles NE 1.2 mph - N/A Fog , Snow Light Freezing Fog
9:18 PM 21.2°F 21.2°F 100% 29.81 in 0.5 miles NE 1.2 mph - N/A Fog , Snow Light Freezing Fog
9:21 PM 21.2°F 21.2°F 100% 29.81 in 0.8 miles Variable 1.2 mph - N/A   Clear
9:31 PM 21.2°F 21.2°F 100% 29.81 in 0.5 miles Calm Calm - N/A Fog Light Freezing Fog
9:41 PM 21.2°F 21.2°F 100% 29.81 in 0.8 miles Calm Calm - N/A   Clear
9:46 PM 21.2°F 21.2°F 100% 29.81 in 1.2 miles Calm Calm - N/A   Partly Cloudy
9:51 PM 21.2°F 21.2°F 100% 29.81 in 1.0 miles ENE 1.2 mph - N/A   Partly Cloudy
9:56 PM 21.2°F 21.2°F 100% 29.81 in 0.5 miles ENE 2.3 mph - N/A Fog Light Freezing Fog
9:58 PM 19.4°F 19.4°F 100% 29.91 in 0.5 miles ENE 2.3 mph - 0.00 in Fog Light Freezing Fog
10:03 PM 19.4°F 19.4°F 100% 29.81 in 0.2 miles East 2.3 mph - N/A Fog Light Freezing Fog
10:08 PM 19.4°F 19.4°F 100% 29.81 in 0.2 miles ENE 2.3 mph - N/A Fog Light Freezing Fog
10:12 PM 21.2°F 21.2°F 100% 29.80 in 0.2 miles East 2.3 mph - N/A Fog , Snow Light Freezing Fog
10:21 PM 21.2°F 21.2°F 100% 29.81 in 0.2 miles ENE 1.2 mph - N/A Fog Light Freezing Fog
10:31 PM 23.0°F 23.0°F 100% 29.81 in 0.2 miles ENE 1.2 mph - N/A Fog Light Freezing Fog
10:36 PM 23.0°F 23.0°F 100% 29.81 in 0.2 miles ENE 2.3 mph - N/A Fog Light Freezing Fog
10:41 PM 23.0°F 23.0°F 100% 29.81 in 0.5 miles ENE 2.3 mph - N/A Fog Light Freezing Fog
10:46 PM 23.0°F 23.0°F 100% 29.81 in 0.5 miles NE 2.3 mph - N/A Fog Light Freezing Fog
10:51 PM 21.2°F 21.2°F 100% 29.81 in 0.2 miles NNE 2.3 mph - N/A Fog Light Freezing Fog
10:56 PM 19.4°F 19.4°F 100% 29.81 in 0.2 miles NNE 2.3 mph - N/A Fog , Snow Light Freezing Fog
10:58 PM 20.8°F 20.8°F 100% 29.91 in 0.2 miles NNE 2.3 mph - 0.00 in Fog , Snow Light Freezing Fog
11:03 PM 19.4°F 19.4°F 100% 29.81 in 0.5 miles North 3.5 mph - N/A Fog , Snow Light Freezing Fog
11:08 PM 19.4°F 19.4°F 100% 29.81 in 1.0 miles North 3.5 mph - N/A Snow Light Snow
11:13 PM 19.4°F 19.4°F 100% 29.81 in 4.0 miles North 2.3 mph - N/A Snow Light Snow
11:18 PM 19.4°F 19.4°F 100% 29.80 in 10.0 miles North 2.3 mph - N/A   Clear
11:43 PM 17.6°F 17.6°F 100% 29.80 in 1.2 miles NNW 3.5 mph - N/A   Clear
11:48 PM 17.6°F 17.6°F 100% 29.80 in 0.5 miles North 1.2 mph - N/A Fog Light Freezing Fog
11:53 PM 17.6°F 17.6°F 100% 29.80 in 0.2 miles Calm Calm - N/A Fog Light Freezing Fog
11:58 PM 17.2°F 17.2°F 100% 29.90 in 0.2 miles Calm Calm - 0.00 in Fog Light Freezing Fog
Moon Phase
Dec. 13 Dec. 20 Dec. 28 Jan. 04 Jan. 11
Sunrise:07:31 AM (PST) Moon Rise:07:42 AM (PST)12/13
Sunset:03:59 PM (PST) Moon Set:04:49 PM (PST)12/13

Copyright © 2014 The Weather Underground, Inc.